SKYSAT-C19 (46235 NORAD) Tracking and Keplerian Element Data

This shows tracking and keplerian element data for the satellite.

Feedback or suggestion? Click here.




ElementValue
Catalog46235
NameSKYSAT-C19
Epoch Orbit542
Epoch Day268.20177881
Epoch Year2020
RAAN257.9212
Inclination52.9988
Eccentricity0.000329
Argument of Perigee47.1801
Mean Anonmoly312.9491
Mean Motion15.70395652
Decay Rate0.00014556
L11 46235U 20057BS 20268.20177881 .00014556 00000-0 12131-3 0 9998
L22 46235 52.9988 257.9212 0003290 47.1801 312.9491 15.70395652 5429

Live tracking and technical data element details for SKYSAT-C19 (NORAD 46235). SKYSAT-C19 can be tracked NOW for your location showing map with azimuth and elevation plus other details from your city location.

Track the satellite on the map from your city or location and see movement details for azimuth, elevation, latitude, longitude, range, height, and movement on the map or in text.







IsCatalogInMostPopularTable: catalog: 46235, numindb: 6
Update: records affected: 1



GetName: 46235 SKYSAT-C19

Hit Count: updated at: Mon, 28 Sep 2020 20:44:14 GMT